Regional Weather Roundup
Issued by NWS

Home | Current Version | Previous Version | Text Only | Print | Product List | Glossary Off
Versions: 1 2 3 4 5 6 7 8 9 10 11 12 13 14 15 16 17 18 19 20 21 22 23 24 25 26 27 28 29 30 31 32 33 34 35 36 37 38 39 40 41 42 43 44 45 46 47 48 49 50

878
ASUS43 KBIS 240110
RWRND
NORTH DAKOTA REGIONAL WEATHER ROUNDUP
NATIONAL WEATHER SERVICE EASTERN NORTH DAKOTA/GRAND FORKS ND
800 PM CDT TUE MAY 23 2017

  NOTE: "FAIR" INDICATES FEW OR NO CLOUDS BELOW 12,000 FEET WITH NO
  SIGNIFICANT WEATHER AND/OR OBSTRUCTIONS TO VISIBILITY.

NDZ001>003-009>011-017-240200-
...NORTHWEST NORTH DAKOTA...

CITY           SKY/WX    TMP DP  RH WIND       PRES   REMARKS
WILLISTON      FAIR      69  33  26 SE9       29.95F
MINOT          FAIR      65  34  31 E5        29.97F
MINOT AFB      FAIR      67  32  27 S5        29.96F
$$

NDZ018>021-031>035-040>046-240200-
...SOUTHWEST NORTH DAKOTA...

CITY           SKY/WX    TMP DP  RH WIND       PRES   REMARKS
BISMARCK       FAIR      63  37  38 E12G22    29.99F
DICKINSON      FAIR      61  32  33 E6        29.99F
GARRISON         N/A     64  33  31 MISG      29.98F
HETTINGER      FAIR      63  32  31 N7        30.02F
$$

NDZ004>008-012>016-024-026-027-054-240200-
...NORTHEAST NORTH DAKOTA...

CITY           SKY/WX    TMP DP  RH WIND       PRES   REMARKS
GRAND FORKS    FAIR      62  42  47 E9        29.95F
GRAND FORKS AF FAIR      60  42  51 SE6       29.96S
DEVILS LAKE    FAIR      62  38  40 E10       29.98F
$$

NDZ022-023-025-028>030-036>039-047>053-240200-
...SOUTHEAST NORTH DAKOTA...

CITY           SKY/WX    TMP DP  RH WIND       PRES   REMARKS
JAMESTOWN      PTSUNNY   56  40  55 NE12      29.97S
FARGO          CLOUDY    57  44  62 NE12      29.94S
WAHPETON       FAIR      54  41  62 N10       29.93S
$$




USA.gov is the U.S. government's official web portal to all federal, state and local government web resources and services.